Regional Weather Roundup
Issued by NWS

Home | Current Version | Previous Version | Graphics & Text | Print | Product List | Glossary On
Versions: 1 2 3 4 5 6 7 8 9 10 11 12 13 14 15 16 17 18 19 20 21 22 23 24 25 26 27
000
ASUS45 KBOI 052110
RWRID

IDAHO REGIONAL WEATHER ROUNDUP
NATIONAL WEATHER SERVICE BOISE ID
300 PM MDT THU MAY 05 2016

NOTE: "FAIR" INDICATES FEW OR NO CLOUDS BELOW 12000 FEET
WITH NO SIGNIFICANT WEATHER AND/OR OBSTRUCTIONS TO VISIBILITY

IDZ012-014-052200-
SOUTHWEST IDAHO


CITY           SKY/WX    TMP DP  RH WIND       PRES   REMARKS
BOISE          MOSUNNY   74  45  35 CALM      29.78F
CALDWELL       MOSUNNY   76  49  38 MISG      29.77F
MOUNTAIN HOME  PTSUNNY   77  42  28 VRB2G17   29.77F
$$

IDZ016-017-052200-
SOUTHCENTRAL IDAHO


CITY           SKY/WX    TMP DP  RH WIND       PRES   REMARKS
BURLEY         CLOUDY    79  49  34 SE13G21   29.80F
JEROME         PTSUNNY   77  47  34 SE7       29.81F
TWIN FALLS     CLOUDY    72  48  42 NE8       29.81F
$$

IDZ019>023-052200-
SOUTHEAST IDAHO


CITY           SKY/WX    TMP DP  RH WIND       PRES   REMARKS
IDAHO FALLS    CLOUDY    82  25  12 S9G21     29.90F
POCATELLO      CLOUDY    83  31  15 S16G22    29.87F
REXBURG        CLOUDY    80  30  16 S12G17    29.91F
$$

IDZ006-010-011-018-031-032-052200-
CENTRAL IDAHO MOUNTAINS


CITY           SKY/WX    TMP DP  RH WIND       PRES   REMARKS
MCCALL         CLOUDY    68  38  33 VRB5      29.87F
HAILEY         MOSUNNY   73  39  29 S15       29.92F
STANLEY          N/A     71  20  14 SW12G25   29.94F
SALMON         MOSUNNY   75  37  25 W5        29.81F
CHALLIS        PTSUNNY   78  24  13 S12       29.85F
$$

IDZ002-004-006-007-026-052200-
NORTHERN IDAHO


CITY           SKY/WX    TMP DP  RH WIND       PRES   REMARKS
LEWISTON       PTSUNNY   75  52  44 W14       29.85F
LOWELL           N/A     76  54  46 VRB7G17   29.79S
COEUR D`ALENE  SUNNY     70  48  46 W7        29.88F
MULLAN PASS    PTSUNNY   60  41  49 VRB6      30.00S
$$




USA.gov is the U.S. government's official web portal to all federal, state and local government web resources and services.